Regional Weather Roundup
Issued by NWS

Home | Current Version | Previous Version | Text Only | Print | Product List | Glossary On
Versions: 1 2 3 4 5 6 7 8 9 10 11 12 13 14 15 16 17 18 19 20 21 22 23 24 25 26 27 28 29 30 31 32 33 34 35 36 37 38 39 40 41 42 43 44 45 46 47 48 49 50
000
ASUS43 KLMK 062210
RWRKY
KENTUCKY REGIONAL WEATHER ROUNDUP
NATIONAL WEATHER SERVICE LOUISVILLE KY
500 PM EST FRI MAR 06 2015

NOTE "FAIR" INDICATES FEW OR NO CLOUDS BELOW 12,000 FEET
WITH NO SIGNIFICANT WEATHER AND/OR OBSTRUCTIONS TO VISIBILITY.

KYZ001>023-026-027-061>063-070>075-062300-
WESTERN AND SOUTH CENTRAL KENTUCKY

CITY           SKY/WX    TMP DP  RH WIND       PRES   REMARKS
PADUCAH        SUNNY     29   9  43 SW9       30.46F WCI  20
HENDERSON      SUNNY     30   7  37 S9        30.44F WCI  22
OWENSBORO      SUNNY     28  16  61 SW8       30.45F WCI  20
HOPKINSVILLE   SUNNY     29  17  61 NE6       30.46F WCI  23
BOWLING GREEN  SUNNY     28  10  46 SW7       30.48F WCI  21
GLASGOW        SUNNY     31  15  50 CALM      30.45F
$$

KYZ024-025-028>034-038-045-046-053-062300-
NORTH CENTRAL KENTUCKY

CITY           SKY/WX    TMP DP  RH WIND       PRES   REMARKS
LOUISVILLE/SDF SUNNY     32  13  45 SW9       30.43F WCI  24
LOUISVILLE/LOU SUNNY     31  13  47 S8        30.43F WCI  23
FORT KNOX      SUNNY     28  12  51 S12       30.41F WCI  17
$$

KYZ035>037-039>044-047>052-055>060-089>105-062300-
NORTHEAST KENTUCKY

CITY           SKY/WX    TMP DP  RH WIND       PRES   REMARKS
LEXINGTON      SUNNY     24  10  55 S8        30.43F WCI  15
COVINGTON      MOSUNNY   27   9  46 S10G17    30.40F WCI  17
FRANKFORT      SUNNY     27  14  58 S7        30.42F WCI  19
$$

KYZ054-064>069-076>088-106>120-062300-
SOUTHEAST KENTUCKY

CITY           SKY/WX    TMP DP  RH WIND       PRES   REMARKS
JACKSON        SUNNY     31  10  41 CALM      30.39F
LONDON         SUNNY     31  12  45 SE3       30.42F
SOMERSET       SUNNY     30   9  40 W3        30.46F
MIDDLESBORO    SUNNY     37  15  41 W6        30.41F WCI  32
MONTICELLO     CLEAR     32  11  41 CALM      30.47F
$$




USA.gov is the U.S. government's official web portal to all federal, state and local government web resources and services.